Overview Statistics Trail Chart Weather Telemetry Raw packets
 

This is the latest recevied weather packets stored in our database for station/object AG1T-20. If no packets are shown the sender has not sent any weather packets the latest 10 day(s).

<< 48 49 50 51 52 53 54 >>
Time Temp. Humidity Pressure Rain* Wind** Luminosity Snow
1787870404 33.33° C 24% 1019.9 hPa 0 mm - 129 W/m² -
1787869805 35.56° C 19% 1019.9 hPa 0 mm - 348 W/m² -
1787869205 35° C 19% 1019.9 hPa 0 mm - 377 W/m² -
1787868605 35° C 19% 1019.9 hPa 0 mm - 391 W/m² -
1787868005 35° C 19% 1019.9 hPa 0 mm - 380 W/m² -
1787867405 33.33° C 20% 1020.9 hPa 0 mm - 529 W/m² -
1787866804 33.33° C 25% 1020.9 hPa 0 mm - 660 W/m² -
1787866205 32.22° C 23% 1020.9 hPa 0 mm - 245 W/m² -
1787865605 32.78° C 24% 1020.9 hPa 0 mm - 258 W/m² -
1787865005 33.33° C 23% 1020.9 hPa 0 mm - 670 W/m² -
1787864405 32.22° C 23% 1020.9 hPa 0 mm - 619 W/m² -
1787863805 33.89° C 24% 1021.6 hPa 0 mm - 747 W/m² -
1787863205 31.67° C 26% 1021.6 hPa 0 mm - 420 W/m² -
1787862605 31.11° C 32% 1021.6 hPa 0 mm - 248 W/m² -
1787862005 31.11° C 27% 1021.6 hPa 0 mm - 300 W/m² -
1787861405 31.11° C 29% 1021.6 hPa 0 mm - 264 W/m² -
1787860805 32.22° C 26% 1021.6 hPa 0 mm - 322 W/m² -
1787860205 31.67° C 28% 1021.9 hPa 0 mm - 769 W/m² -
1787859605 31.11° C 27% 1021.9 hPa 0 mm - 534 W/m² -
1787859005 31.11° C 29% 1021.9 hPa 0 mm - 816 W/m² -
1787858405 30.56° C 33% 1021.9 hPa 0 mm - 829 W/m² -
1787857805 30.56° C 32% 1021.9 hPa 0 mm - 830 W/m² -
1787857214 30° C 32% 1021.9 hPa 0 mm - 834 W/m² -
1787856605 30.56° C 35% 1022.2 hPa 0 mm - 840 W/m² -
1787856011 30.56° C 33% 1022.2 hPa 0 mm - 853 W/m² -

* Rain latest hour (hover to see other rain measurements)
** Current wind speed in m/s (hover to see current wind gust speed)